Somersworth, NH

5:41 AM EST on February 28, 2017 (GMT -0500)
Skyhaven

Weather History for KDAW - January, 2014

Change the Weather History Date:

Saturday, January 4, 2014

  Actual Average (KPSM) Record (KPSM)
Temperature  
Mean Temperature 6 °F -  
Max Temperature 21 °F 33 °F 56 °F (1993)
Min Temperature -9 °F 19 °F -5 °F (1981)
Degree Days  
Heating Degree Days 59    
Moisture  
Dew Point -7 °F    
Average Humidity 51    
Maximum Humidity 69    
Minimum Humidity 32    
Precipitation  
Precipitation 0.00 in - - ()
Sea Level Pressure  
Sea Level Pressure 30.32 in    
Wind  
Wind Speed 1 mph (South)    
Max Wind Speed 6 mph    
Max Gust Speed -    
Visibility 10 miles    
Events      
Averages and records for this station are not official NWS values.
T = Trace of Precipitation, MM = Missing Value Source: NWS Daily Summary

Daily Weather History Graph

Daily Weather History Graph

Search for Another Location

Airport or City:

Trip Planner

Search our weather history database for the weather conditions in past years. The results will help you decide how hot, cold, wet, or windy it might be!

Date:

Astronomy

Jan. 04, 2014 Rise Set
Actual Time 7:16 AM EST 4:21 PM EST
Civil Twilight 6:43 AM EST 4:53 PM EST
Nautical Twilight 6:07 AM EST 5:29 PM EST
Astronomical Twilight 5:33 AM EST 6:04 PM EST
Moon 9:12 AM EST (1/4) 8:45 PM EST (1/4)
Length of Visible Light 10h 10m
Length of Day
9h 05m
Waxing Crescent, 15% of the Moon is Illuminated
Jan 4
Waxing Crescent
Jan 7
First Quarter
Jan 15
Full
Jan 24
Last Quarter
Jan 30
New

Hourly Weather History & Observations

Time (EST) Temp. Windchill Dew Point Humidity Pressure Visibility Wind Dir Wind Speed Gust Speed Precip Events Conditions
12:51 AM -6.0 °F - -15.0 °F 65% 30.35 in 10.0 mi Calm Calm - N/A   Clear
1:51 AM -4.0 °F - -17.0 °F 54% 30.37 in 10.0 mi Calm Calm - N/A   Clear
2:51 AM -4.0 °F - -16.1 °F 56% 30.38 in 10.0 mi Calm Calm - N/A   Clear
3:51 AM -8.0 °F - -17.0 °F 65% 30.37 in 10.0 mi Calm Calm - N/A   Clear
4:51 AM -9.0 °F - -17.0 °F 68% 30.38 in 10.0 mi Calm Calm - N/A   Clear
5:51 AM -4.0 °F - -15.0 °F 59% 30.38 in 10.0 mi Calm Calm - N/A   Clear
6:51 AM -5.1 °F - -15.0 °F 62% 30.42 in 10.0 mi Calm Calm - N/A   Clear
7:51 AM -4.0 °F - -11.9 °F 69% 30.44 in 10.0 mi Calm Calm - N/A   Clear
8:51 AM -2.0 °F - -11.0 °F 66% 30.45 in 10.0 mi Calm Calm - N/A   Clear
9:51 AM 3.9 °F -3.4 °F -9.9 °F 53% 30.43 in 10.0 mi SSE 3.5 mph - N/A   Clear
10:51 AM 10.0 °F 1.8 °F -9.0 °F 42% 30.39 in 10.0 mi Variable 4.6 mph - N/A   Clear
11:51 AM 15.1 °F 7.7 °F -6.0 °F 39% 30.35 in 10.0 mi Variable 4.6 mph - N/A   Clear
12:51 PM 19.0 °F 12.3 °F -6.0 °F 33% 30.30 in 10.0 mi Variable 4.6 mph - N/A   Clear
1:51 PM 19.9 °F 13.4 °F -6.0 °F 32% 30.27 in 10.0 mi Variable 4.6 mph - N/A   Unknown
2:51 PM 21.0 °F - -5.1 °F 32% 30.28 in 10.0 mi Calm Calm - N/A   Clear
3:51 PM 21.0 °F 13.4 °F -4.0 °F 33% 30.26 in 10.0 mi South 5.8 mph - N/A   Clear
4:51 PM 19.9 °F 12.1 °F -2.9 °F 37% 30.25 in 10.0 mi South 5.8 mph - N/A   Clear
5:51 PM 19.0 °F 13.9 °F -2.0 °F 40% 30.24 in 10.0 mi South 3.5 mph - N/A   Clear
6:51 PM 18.0 °F 12.7 °F -0.0 °F 45% 30.23 in 10.0 mi Variable 3.5 mph - N/A   Clear
7:51 PM 17.1 °F - 1.0 °F 50% 30.22 in 10.0 mi Calm Calm - N/A   Clear
8:51 PM 16.0 °F - 1.9 °F 54% 30.22 in 10.0 mi Calm Calm - N/A   Clear
9:51 PM 17.1 °F - 3.0 °F 54% 30.22 in 10.0 mi Calm Calm - N/A   Clear
10:51 PM 17.1 °F - 3.0 °F 54% 30.22 in 10.0 mi Calm Calm - N/A   Clear
11:51 PM 15.1 °F - 3.0 °F 59% 30.22 in 10.0 mi Calm Calm - N/A   Clear